Flag for Cuba Weather past 2 weeks in Santa Clara, Cuba

Now
73 °F

Mild.


Feels Like: 73 °F
Forecast: 70 / 84 °F
Wind: 7 mph from Northeast

Location: Cienfuegos - Las Villas

Current Time: Mar 2, 2015 at 8:29:09 AM

Latest Report: Mar 2, 2015 at 7:58 AM


Visibility: N/A

Pressure: 30.18 "Hg

Humidity: 83%

Dew point: 68 °F

Location of Santa ClaraLocation

Historic Weather in Santa Clara — Graph

°F

Santa Clara temperature yesterday

Maximum temperature yesterday: 91 °F (at 12:50 PM)
Minimum temperature yesterday: 72 °F (at 4:58 AM)
Average temperature yesterday: 79 °F

Past Weeks' High & Low Weather Summary

 TemperatureHumidityPressure
High91 °F (Feb 28, 12:50 PM)100% (Feb 22, 6:58 AM)30.27 "Hg (Feb 22, 6:58 AM)
Low45 °F (Feb 20, 2:58 AM)33% (Feb 19, 12:51 PM)29.89 "Hg (Feb 26, 1:58 AM)
Average74 °F72%30.08 "Hg
* Reported Feb 15 6:58 AM — Mar 2 6:58 AM, Santa Clara, Weather by CustomWeather, © 2015

Note: Actual official high and low records may vary slightly from our data, if they occured in-between our weather recording intervals... More about our weather records

Advertising

Santa Clara weather history for previous 24 hours

 ConditionsComfort  
Time TempWeatherWind HumidityBarometerVisibility
6:58 AM
Mon, Mar 2
70 °FMild.8 mph94%30.18 "HgN/A
5:58 AM72 °FMild.9 mph88%30.15 "HgN/A
4:58 AM72 °FMild.9 mph94%30.12 "HgN/A
3:58 AM72 °FMild.7 mph94%30.12 "HgN/A
2:57 AM72 °FMild.5 mph94%30.15 "HgN/A
1:58 AM72 °FMild.6 mph94%30.15 "HgN/A
12:58 AM73 °FMild.7 mph89%30.18 "HgN/A
11:58 PM
Sun, Mar 1
73 °FMild.8 mph89%30.18 "HgN/A
10:58 PM75 °FMild.6 mph83%30.21 "HgN/A
9:57 PM75 °FMild.8 mph83%30.21 "HgN/A
8:50 PM77 °FPassing clouds.8 mph79%30.18 "HgN/A
7:51 PM79 °FPassing clouds.10 mph74%30.15 "HgN/A
6:50 PM81 °FPassing clouds.10 mph70%30.15 "HgN/A
5:50 PM82 °FPartly sunny.5 mph66%30.12 "HgN/A
4:50 PM82 °FPartly sunny.9 mph70%30.12 "HgN/A
3:50 PM82 °FPartly sunny.13 mph66%30.09 "HgN/A
2:50 PM86 °FPartly sunny.10 mph55%30.09 "HgN/A
1:50 PM91 °FScattered clouds.12 mph41%30.12 "HgN/A
12:50 PM91 °FScattered clouds.14 mph41%30.15 "HgN/A
11:50 AM90 °FScattered clouds.13 mph46%30.18 "HgN/A
10:50 AM86 °FScattered clouds.12 mph52%30.21 "HgN/A
9:50 AM84 °FScattered clouds.15 mph58%30.24 "HgN/A
8:50 AM79 °FPartly sunny.12 mph79%30.21 "HgN/A
Weather by CustomWeather, © 2015

See weather overviewHow to use our weather pages